User: anonymous   Login
Location: Lawrence Hall of Science
(37.8785°N, 122.2415°W)
Time: 13:35:39
(UTC-07:00)
Language:

ARGOS - Orbit

View from above orbital plane
View from above orbital plane
View from above satellite
View from above satellite

Ground track
Ground track

The orbit data is extracted from the following two-line orbital elements,

1 25634U 99008A   18144.74960732 -.00000019 +00000-0 +10949-4 0  9990
2 25634 098.5689 202.4661 0009181 305.7377 054.2945 14.19333699996448
Epoch (UTC): 24 May 2018 17:59:26
Eccentricity: 0.0009181
inclination: 98.5689°
perigee height: 821 km
apogee height: 834 km
right ascension of ascending node: 202.4661°
argument of perigee: 305.7377°
revolutions per day: 14.19333699
mean anomaly at epoch: 54.2945°
orbit number at epoch: 99644

The dashed part of the orbit path shows where the satellite is in the earth's shadow,  

DLR